[[{"header":{"parameterUnit":"m.s-1","parameterCategory":2,"la1":30.2991,"la2":30.254,"lo1":-89.0895,"lo2":-89.0444,"dy":0.0017,"dx":0.0017,"nx":28,"ny":28,"refTime":"2024-02-03T09:00:00:Z","depth":"0","parameterNumber":2,"parameterNumberName":"U-component_of_CURRENTS"},"data":[0,0,0,0,0,0,0,0,0,0,0,0,0,0,0,0,0,0,0,0,0,0,0,0,0,0,0,0,0,0,0,0,0,0,0,0,0,0,0,0,0,0,0,0,0,0,0,0,0,0,0,0,0,0,0,0,0,0,-0.1987,-0.1986,0,-0.1901,-0.1899,-0.1897,-0.1742,-0.174,-0.1738,-0.1736,-0.1437,-0.1432,-0.1426,0,0,0,0,0,0,0,0,0,0,0,0,0,-0.1967,-0.1968,-0.1987,-0.1986,-0.1986,-0.1901,-0.1899,-0.1897,-0.1742,-0.174,-0.1737,-0.1735,-0.1439,-0.1432,-0.1425,0,0,0,0,0,0,0,0,0,0,0,0,0,-0.193,-0.1968,-0.1987,-0.1906,-0.1898,-0.1901,-0.1899,-0.1896,-0.1743,-0.174,-0.1737,-0.1734,-0.1442,-0.1433,-0.1424,-0.1433,0,0,-0.1397,-0.1393,0,0,0,0,0,0,0,0,-0.1932,-0.1929,-0.1918,-0.1911,-0.1903,-0.1837,-0.1783,-0.1734,-0.1744,-0.1792,-0.1736,-0.1732,-0.156,-0.1541,-0.1522,-0.1419,-0.1406,-0.1396,-0.1391,-0.1387,-0.1384,0,0,0,0,0,0,0,-0.1935,-0.1932,-0.1943,-0.1918,-0.1909,-0.1857,-0.1848,-0.1773,-0.1684,-0.1788,-0.1779,-0.1785,-0.1552,-0.1531,-0.1513,-0.1402,-0.1396,-0.1388,-0.1383,-0.1379,-0.1354,-0.1359,0,0,0,0,0,0,-0.197,-0.1935,-0.1946,-0.1942,-0.192,-0.1861,-0.185,-0.1854,-0.1689,-0.1665,-0.1787,-0.1778,-0.1548,-0.1524,-0.1502,-0.1565,-0.1387,-0.1378,-0.1373,-0.135,-0.1356,-0.1361,0,0,0,0,0,0,-0.197,-0.1972,-0.195,-0.1943,-0.1938,-0.1866,-0.1871,-0.1854,-0.185,-0.1693,-0.1662,-0.1803,-0.1544,-0.1514,-0.1482,-0.1549,-0.1374,-0.1366,-0.1344,-0.1352,-0.1358,-0.1649,0,0,0,0,0,0,-0.197,-0.1973,-0.1986,-0.1946,-0.194,-0.2009,-0.1874,-0.1855,-0.1862,-0.1848,-0.1697,-0.1664,-0.1539,-0.1497,-0.1473,-0.1533,-0.1359,-0.1338,-0.1348,-0.1356,-0.1634,-0.1665,-0.1692,0,0,0,0,0,-0.197,-0.2038,-0.1987,-0.1989,-0.1962,-0.2014,-0.2008,-0.1937,-0.1867,-0.191,-0.18,-0.167,-0.1535,-0.1494,-0.1465,-0.1524,-0.1334,-0.1345,-0.1355,-0.1621,-0.1659,-0.1692,0,0,0,0,0,0,-0.2014,-0.2028,-0.1972,-0.2028,-0.2037,-0.1992,-0.2036,-0.1974,-0.1924,-0.1902,-0.1725,-0.169,-0.1682,-0.1582,-0.1541,-0.1549,-0.1416,-0.1421,-0.1628,-0.1662,-0.1691,-0.1708,-0.1352,0,0,0,0,0,-0.2038,-0.2097,-0.2083,-0.2125,-0.2153,-0.2094,-0.2102,-0.2062,-0.2015,-0.1989,-0.1882,-0.1777,-0.1706,-0.1669,-0.159,-0.1601,-0.1566,-0.1624,-0.1654,-0.1679,-0.1679,-0.1708,-0.174,-0.1395,-0.1395,-0.1395,0,0,-0.2061,-0.2078,-0.2103,-0.2141,-0.214,-0.2209,-0.2092,-0.2151,-0.2172,-0.1965,-0.1971,-0.1874,-0.1733,-0.1739,-0.1727,-0.1661,-0.1782,-0.1693,-0.1715,-0.17,-0.1723,-0.1756,-0.1786,-0.1403,-0.1401,-0.14,0,0,-0.2192,-0.217,-0.2284,-0.2315,-0.2357,-0.2324,-0.2359,-0.2345,-0.2312,-0.2317,-0.217,-0.2133,-0.2025,-0.1949,-0.1888,-0.2041,-0.1934,-0.202,-0.2177,-0.221,-0.2238,-0.2262,-0.2356,-0.2386,-0.2037,-0.2038,-0.2038,0,-0.2215,-0.2331,-0.2324,-0.2443,-0.2476,-0.2394,-0.2505,-0.2477,-0.2438,-0.2424,-0.2361,-0.2239,-0.2124,-0.2112,-0.2156,-0.2104,-0.2124,-0.2052,-0.2249,-0.2271,-0.229,-0.238,-0.2409,-0.2053,-0.2051,-0.205,-0.2048,0,-0.2436,-0.2513,-0.2599,-0.2696,-0.2737,-0.2829,-0.2799,-0.2812,-0.2748,-0.2691,-0.2681,-0.2553,-0.2469,-0.245,-0.2333,-0.2417,-0.2394,-0.2284,-0.216,-0.2343,-0.2427,-0.2452,-0.2075,-0.207,-0.2065,-0.2061,0,0,-0.251,-0.2714,-0.2735,-0.2809,-0.2875,-0.293,-0.299,-0.3013,-0.3032,-0.298,-0.3005,-0.2905,-0.2816,-0.2745,-0.2624,-0.2646,-0.2822,-0.254,-0.2534,-0.2639,-0.2964,-0.3087,-0.3124,-0.2751,-0.2755,-0.2758,-0.3002,0,-0.267,-0.293,-0.2978,-0.3158,-0.3273,-0.323,-0.3287,-0.3279,-0.3229,-0.3231,-0.3112,-0.3083,-0.2933,-0.2907,-0.2911,-0.2795,-0.2886,-0.277,-0.2763,-0.2764,-0.2853,-0.3156,-0.3178,-0.3407,-0.3025,-0.3029,-0.3032,0,-0.2855,-0.2997,-0.3228,-0.3376,-0.3424,-0.3493,-0.3542,-0.358,-0.3542,-0.3515,-0.3468,-0.3352,-0.333,-0.3191,-0.3177,-0.3112,-0.3087,-0.3032,-0.3038,-0.3052,-0.2933,-0.3142,-0.3465,-0.3414,-0.3068,-0.3065,-0.3063,0,-0.2899,-0.3154,-0.333,-0.3385,-0.3543,-0.3604,-0.3649,-0.3651,-0.368,-0.3675,-0.3706,-0.3634,-0.3601,-0.3547,-0.3399,-0.3313,-0.3416,-0.3271,-0.3398,-0.3407,-0.3371,-0.3371,-0.3634,-0.3362,-0.3362,-0.3361,-0.336,0,-0.3025,-0.3158,-0.3362,-0.3447,-0.3594,-0.3684,-0.3789,-0.381,-0.3866,-0.3915,-0.3838,-0.388,-0.3687,-0.3673,-0.3548,-0.3583,-0.3551,-0.3515,-0.3503,-0.3487,-0.3494,-0.3391,-0.3305,-0.337,-0.3368,-0.3366,-0.3365,0,-0.3021,-0.3181,-0.3357,-0.3558,-0.3612,-0.369,-0.3843,-0.3903,-0.3995,-0.4064,-0.4082,-0.4084,-0.4102,-0.3966,-0.389,-0.3812,-0.379,-0.3822,-0.3857,-0.3848,-0.3927,-0.3854,-0.3985,-0.397,-0.4053,-0.4058,-0.4062,0,-0.3049,-0.3152,-0.337,-0.3429,-0.351,-0.3652,-0.3725,-0.3891,-0.3962,-0.4181,-0.421,-0.4311,-0.4314,-0.4332,-0.4241,-0.4204,-0.4019,-0.4232,-0.4071,-0.4047,-0.3953,-0.3785,-0.3746,-0.4168,-0.4173,-0.4176,-0.4179,0,-0.3015,-0.3082,-0.3198,-0.3303,-0.3404,-0.3556,-0.3699,-0.3784,-0.3986,-0.4065,-0.421,-0.4277,-0.4488,-0.4472,-0.4515,-0.4457,-0.4194,-0.4318,-0.4253,-0.4094,-0.396,-0.3899,-0.3919,-0.4213,-0.421,-0.4207,-0.4206,-0.4204,-0.2895,-0.2937,-0.3023,-0.3095,-0.3224,-0.3326,-0.3269,-0.3425,-0.3479,-0.3406,-0.3957,-0.3877,-0.441,-0.4488,-0.4557,-0.4641,-0.4488,-0.4532,-0.4465,-0.4312,-0.4257,-0.4427,-0.4709,-0.4709,-0.4708,-0.4708,-0.4708,0,-0.2681,-0.2713,-0.2786,-0.2804,-0.2777,-0.2962,-0.3101,-0.2906,-0.2725,-0.2858,-0.2932,-0.3429,-0.3851,-0.4236,-0.4653,-0.4696,-0.4572,-0.4667,-0.4388,-0.4354,-0.4501,-0.4463,-0.4752,-0.4752,-0.4752,-0.4752,-0.4752,-0.4752,-0.2533,-0.2499,-0.2528,-0.2306,-0.2291,-0.2123,-0.2095,-0.1862,-0.181,-0.1622,-0.1689,-0.1967,-0.2866,-0.404,-0.4518,-0.4581,-0.4437,-0.4475,-0.4402,-0.4443,-0.4421,-0.4399,-0.4348,-0.4608,-0.4608,-0.4197,-0.4194,-0.4191]},{"header":{"parameterUnit":"m.s-1","parameterCategory":2,"la1":30.2991,"la2":30.254,"lo1":-89.0895,"lo2":-89.0444,"dy":0.0017,"dx":0.0017,"nx":28,"ny":28,"refTime":"2024-02-03T09:00:00:Z","depth":"0","parameterNumber":3,"parameterNumberName":"V-component_of_CURRENTS"},"data":[0,0,0,0,0,0,0,0,0,0,0,0,0,0,0,0,0,0,0,0,0,0,0,0,0,0,0,0,0,0,0,0,0,0,0,0,0,0,0,0,0,0,0,0,0,0,0,0,0,0,0,0,0,0,0,0,0,0,0.0727,0.0728,0,0.0844,0.0845,0.0846,0.0887,0.0887,0.0887,0.0887,0.0863,0.0862,0.0862,0,0,0,0,0,0,0,0,0,0,0,0,0,0.0612,0.0614,0.0727,0.0728,0.073,0.0843,0.0845,0.0846,0.0887,0.0887,0.0887,0.0886,0.0863,0.0862,0.0862,0,0,0,0,0,0,0,0,0,0,0,0,0,0.0687,0.0614,0.0726,0.0765,0.077,0.0843,0.0845,0.0847,0.0888,0.0887,0.0887,0.0886,0.0863,0.0862,0.0862,0.0867,0,0,0.086,0.086,0,0,0,0,0,0,0,0,0.0683,0.0691,0.0758,0.0763,0.0768,0.0852,0.0796,0.0847,0.0888,0.0841,0.0887,0.0886,0.0847,0.0848,0.0871,0.0866,0.0865,0.086,0.086,0.0859,0.0859,0,0,0,0,0,0,0,0.0677,0.0687,0.0771,0.076,0.0766,0.0802,0.0811,0.0807,0.0841,0.0845,0.0849,0.0865,0.0849,0.0871,0.087,0.0864,0.086,0.0859,0.0859,0.0859,0.0974,0.0977,0,0,0,0,0,0,0.0663,0.0681,0.0768,0.0775,0.0725,0.0804,0.0815,0.0824,0.0845,0.0849,0.0865,0.0866,0.0872,0.0871,0.0869,0.0952,0.0859,0.0859,0.0858,0.097,0.0974,0.0978,0,0,0,0,0,0,0.066,0.0669,0.0763,0.0733,0.0747,0.0806,0.0817,0.0827,0.0852,0.0861,0.0863,0.088,0.0872,0.087,0.091,0.0948,0.0859,0.0858,0.0966,0.0972,0.0976,0.1068,0,0,0,0,0,0,0.0656,0.0667,0.0659,0.0731,0.0748,0.081,0.0818,0.0829,0.0863,0.0865,0.0874,0.0872,0.0872,0.0912,0.091,0.0945,0.0858,0.0962,0.0969,0.0975,0.106,0.1075,0.1088,0,0,0,0,0,0.0651,0.0633,0.0658,0.0668,0.0738,0.0811,0.0823,0.0863,0.0863,0.0882,0.0915,0.0872,0.095,0.0914,0.0911,0.0947,0.0959,0.0967,0.0974,0.1054,0.1072,0.1088,0,0,0,0,0,0,0.0557,0.0638,0.0666,0.0667,0.0741,0.0819,0.0824,0.0864,0.0906,0.0898,0.0909,0.0911,0.0962,0.0949,0.0908,0.1006,0.0949,0.0957,0.1011,0.1028,0.1042,0.1019,0.0857,0,0,0,0,0,0.054,0.0552,0.0648,0.0645,0.0681,0.0757,0.0785,0.0825,0.0878,0.0895,0.0919,0.0948,0.0993,0.1004,0.1029,0.1068,0.1065,0.1096,0.111,0.1121,0.1106,0.1152,0.1167,0.1003,0.1003,0.1003,0,0,0.0492,0.0543,0.0543,0.0628,0.0678,0.0744,0.0771,0.0818,0.0881,0.0881,0.0952,0.0986,0.1016,0.1084,0.1104,0.1073,0.1178,0.1131,0.114,0.1118,0.1161,0.1176,0.119,0.1008,0.1007,0.1007,0,0,0.0426,0.0463,0.0469,0.0548,0.0641,0.0708,0.0726,0.0826,0.0877,0.0959,0.0993,0.1061,0.1105,0.1164,0.1191,0.1291,0.1249,0.1295,0.1341,0.1387,0.1399,0.141,0.1466,0.1481,0.1302,0.1302,0.1302,0,0.0364,0.04,0.0479,0.0537,0.0596,0.0696,0.0745,0.0826,0.0932,0.0984,0.0984,0.1129,0.1149,0.1263,0.1311,0.1319,0.1333,0.1271,0.1401,0.1412,0.1421,0.1475,0.149,0.1307,0.1307,0.1306,0.1306,0,0.0338,0.038,0.0392,0.0506,0.0586,0.0635,0.0782,0.086,0.0931,0.1018,0.1143,0.1215,0.1292,0.1336,0.135,0.1451,0.1439,0.1411,0.1348,0.1442,0.1495,0.1509,0.1315,0.1313,0.1311,0.131,0,0,0.0145,0.0333,0.0333,0.0395,0.0577,0.0629,0.0766,0.091,0.0987,0.1112,0.121,0.1343,0.1381,0.1417,0.1466,0.1524,0.1628,0.1494,0.1494,0.1531,0.1737,0.195,0.1985,0.1614,0.1616,0.1618,0.1759,0,0.0091,0.0175,0.0303,0.0389,0.0449,0.0624,0.0746,0.0898,0.1029,0.1152,0.128,0.138,0.1417,0.1457,0.153,0.1602,0.1663,0.1593,0.1654,0.1656,0.1819,0.2008,0.2262,0.2428,0.1773,0.1775,0.1777,0,0.0012,0.0093,0.0164,0.0354,0.0396,0.0468,0.0669,0.0794,0.1023,0.1129,0.1276,0.1378,0.1533,0.1514,0.1698,0.1648,0.1688,0.174,0.1746,0.1912,0.1897,0.2223,0.2477,0.2721,0.1798,0.1796,0.1794,0,-0.0182,-0.0018,0.0029,0.0096,0.0333,0.0391,0.051,0.0752,0.087,0.1096,0.1205,0.1397,0.1505,0.1595,0.1756,0.1711,0.1934,0.1877,0.2111,0.2125,0.2339,0.237,0.282,0.1965,0.1965,0.1964,0.1964,0,-0.0298,-0.0271,-0.0072,-0.0048,0.0013,0.0236,0.0328,0.0502,0.0744,0.0905,0.1145,0.136,0.1524,0.1705,0.1777,0.2049,0.1959,0.217,0.2202,0.2388,0.242,0.2634,0.2648,0.197,0.1968,0.1967,0.1967,0,-0.0522,-0.0393,-0.0334,-0.0128,-0.0085,-0.005,0.0178,0.0272,0.0547,0.0764,0.0843,0.1307,0.1657,0.1826,0.2033,0.2133,0.2478,0.2388,0.2621,0.2682,0.317,0.3177,0.3459,0.3523,0.271,0.2716,0.2722,0,-0.0626,-0.0618,-0.0461,-0.0436,-0.0363,-0.0271,-0.0193,0.0095,0.0237,0.0794,0.0898,0.1368,0.1823,0.2292,0.2539,0.278,0.2784,0.3079,0.306,0.3314,0.3339,0.3222,0.324,0.3375,0.3385,0.3394,0.3401,0,-0.0806,-0.0758,-0.0695,-0.0646,-0.06,-0.05,-0.0352,-0.027,0.0141,0.0453,0.1084,0.1545,0.2237,0.2904,0.3219,0.3283,0.3313,0.3266,0.3473,0.3896,0.3847,0.3886,0.3141,0.3477,0.3469,0.3464,0.346,0.3456,-0.0942,-0.0956,-0.0866,-0.0821,-0.0759,-0.0658,-0.0568,-0.0337,-0.0029,0.0548,0.1155,0.1977,0.3103,0.3766,0.3848,0.4221,0.3912,0.4355,0.4336,0.4187,0.4307,0.376,0.4163,0.4159,0.4156,0.4153,0.4151,0,-0.1032,-0.1031,-0.1025,-0.0919,-0.0855,-0.0776,-0.0588,-0.0437,-0.0063,0.0546,0.1293,0.2814,0.3846,0.4511,0.5217,0.5345,0.5112,0.5346,0.5258,0.521,0.4756,0.4855,0.5497,0.5497,0.5497,0.5497,0.5496,0.5496,-0.1074,-0.1089,-0.1071,-0.0991,-0.0915,-0.0789,-0.0671,-0.0409,0.0005,0.0888,0.1778,0.2647,0.3933,0.5546,0.6229,0.6164,0.6127,0.6122,0.598,0.575,0.5654,0.5562,0.5671,0.6473,0.6474,0.646,0.6461,0.6463]}],[{"header":{"parameterUnit":"m.s-1","parameterCategory":2,"la1":30.2991,"la2":30.254,"lo1":-89.0895,"lo2":-89.0444,"dy":0.0017,"dx":0.0017,"nx":28,"ny":28,"refTime":"2024-02-03T09:00:00:Z","depth":"2","parameterNumber":2,"parameterNumberName":"U-component_of_CURRENTS"},"data":[0,0,0,0,0,0,0,0,0,0,0,0,0,0,0,0,0,0,0,0,0,0,0,0,0,0,0,0,0,0,0,0,0,0,0,0,0,0,0,0,0,0,0,0,0,0,0,0,0,0,0,0,0,0,0,0,0,0,-0.1954,-0.1954,0,-0.187,-0.1868,-0.1867,-0.1713,-0.1711,-0.1708,-0.1706,-0.1408,-0.1403,-0.1397,0,0,0,0,0,0,0,0,0,0,0,0,0,-0.1935,-0.1935,-0.1954,-0.1954,-0.1954,-0.187,-0.1868,-0.1866,-0.1713,-0.171,-0.1708,-0.1705,-0.141,-0.1403,-0.1396,0,0,0,0,0,0,0,0,0,0,0,0,0,-0.1898,-0.1936,-0.1955,-0.1874,-0.1867,-0.1871,-0.1868,-0.1866,-0.1714,-0.171,-0.1707,-0.1704,-0.1413,-0.1404,-0.1395,-0.1404,0,0,-0.1368,-0.1364,0,0,0,0,0,0,0,0,-0.19,-0.1897,-0.1886,-0.188,-0.1872,-0.1807,-0.1753,-0.1704,-0.1714,-0.1762,-0.1706,-0.1703,-0.153,-0.1511,-0.1493,-0.139,-0.1377,-0.1367,-0.1362,-0.1358,-0.1355,0,0,0,0,0,0,0,-0.1903,-0.19,-0.1912,-0.1887,-0.1878,-0.1827,-0.1817,-0.1743,-0.1654,-0.1758,-0.1749,-0.1755,-0.1523,-0.1502,-0.1484,-0.1372,-0.1367,-0.1359,-0.1354,-0.135,-0.1325,-0.133,0,0,0,0,0,0,-0.1938,-0.1903,-0.1915,-0.191,-0.1889,-0.1831,-0.1819,-0.1823,-0.1659,-0.1635,-0.1758,-0.1748,-0.1519,-0.1495,-0.1473,-0.1536,-0.1358,-0.135,-0.1344,-0.1321,-0.1326,-0.1331,0,0,0,0,0,0,-0.1938,-0.194,-0.1918,-0.1912,-0.1906,-0.1836,-0.184,-0.1824,-0.182,-0.1663,-0.1632,-0.1774,-0.1515,-0.1485,-0.1453,-0.152,-0.1345,-0.1337,-0.1315,-0.1322,-0.1329,-0.1621,0,0,0,0,0,0,-0.1938,-0.194,-0.1954,-0.1915,-0.1908,-0.1978,-0.1844,-0.1824,-0.1832,-0.1819,-0.1667,-0.1635,-0.151,-0.1468,-0.1445,-0.1505,-0.133,-0.1309,-0.1318,-0.1327,-0.1606,-0.1638,-0.1665,0,0,0,0,0,-0.1937,-0.2006,-0.1955,-0.1957,-0.193,-0.1984,-0.1978,-0.1907,-0.1837,-0.1881,-0.1771,-0.1641,-0.1506,-0.1465,-0.1436,-0.1495,-0.1305,-0.1316,-0.1326,-0.1593,-0.1631,-0.1664,0,0,0,0,0,0,-0.1982,-0.1996,-0.1939,-0.1996,-0.2006,-0.1962,-0.2006,-0.1945,-0.1895,-0.1873,-0.1696,-0.1661,-0.1653,-0.1554,-0.1512,-0.152,-0.1387,-0.1392,-0.1599,-0.1634,-0.1663,-0.168,-0.1323,0,0,0,0,0,-0.2005,-0.2065,-0.2051,-0.2093,-0.2122,-0.2063,-0.2072,-0.2032,-0.1986,-0.196,-0.1854,-0.1749,-0.1677,-0.164,-0.1561,-0.1572,-0.1538,-0.1596,-0.1625,-0.1651,-0.165,-0.168,-0.1712,-0.1366,-0.1366,-0.1366,0,0,-0.2028,-0.2046,-0.2071,-0.2109,-0.2109,-0.2179,-0.2062,-0.2121,-0.2143,-0.1936,-0.1942,-0.1846,-0.1705,-0.171,-0.1699,-0.1633,-0.1754,-0.1664,-0.1687,-0.1671,-0.1694,-0.1728,-0.1757,-0.1373,-0.1372,-0.1371,0,0,-0.216,-0.2138,-0.2253,-0.2284,-0.2327,-0.2294,-0.2329,-0.2316,-0.2283,-0.229,-0.2143,-0.2105,-0.1997,-0.1921,-0.186,-0.2014,-0.1906,-0.1992,-0.215,-0.2182,-0.2211,-0.2234,-0.233,-0.2359,-0.201,-0.201,-0.2011,0,-0.2184,-0.2299,-0.2293,-0.2412,-0.2446,-0.2364,-0.2476,-0.2449,-0.241,-0.2396,-0.2333,-0.2212,-0.2096,-0.2084,-0.2129,-0.2077,-0.2097,-0.2024,-0.2222,-0.2244,-0.2263,-0.2353,-0.2382,-0.2026,-0.2024,-0.2022,-0.2021,0,-0.2405,-0.2483,-0.2569,-0.2667,-0.2709,-0.2801,-0.2772,-0.2785,-0.2721,-0.2664,-0.2655,-0.2526,-0.2443,-0.2424,-0.2307,-0.239,-0.2368,-0.2257,-0.2133,-0.2316,-0.24,-0.2426,-0.2048,-0.2042,-0.2038,-0.2034,0,0,-0.2479,-0.2685,-0.2706,-0.278,-0.2847,-0.2903,-0.2963,-0.2986,-0.3005,-0.2954,-0.298,-0.2879,-0.2791,-0.2719,-0.2598,-0.2619,-0.2797,-0.2514,-0.2508,-0.2613,-0.2938,-0.3061,-0.3099,-0.2725,-0.2729,-0.2732,-0.2976,0,-0.264,-0.2902,-0.2951,-0.3131,-0.3247,-0.3203,-0.3261,-0.3254,-0.3203,-0.3205,-0.3086,-0.3057,-0.2907,-0.2882,-0.2886,-0.277,-0.2861,-0.2744,-0.2737,-0.2738,-0.2827,-0.313,-0.2487,-0.2661,-0.3,-0.3004,-0.3006,0,-0.2827,-0.297,-0.3201,-0.3349,-0.3398,-0.3468,-0.3517,-0.3555,-0.3517,-0.349,-0.3443,-0.3326,-0.3305,-0.3166,-0.3152,-0.3086,-0.3061,-0.3007,-0.3013,-0.3025,-0.2906,-0.2512,-0.2691,-0.3046,-0.3043,-0.304,-0.3038,0,-0.2871,-0.3127,-0.3304,-0.3359,-0.3518,-0.3579,-0.3624,-0.3626,-0.3655,-0.3649,-0.3681,-0.3609,-0.3576,-0.3522,-0.3374,-0.3288,-0.3391,-0.3246,-0.3373,-0.3381,-0.2779,-0.2731,-0.3338,-0.3337,-0.3337,-0.3336,-0.3335,0,-0.2998,-0.3132,-0.3336,-0.3421,-0.3569,-0.3659,-0.3765,-0.3786,-0.3841,-0.389,-0.3813,-0.3855,-0.3662,-0.3648,-0.3524,-0.3558,-0.3526,-0.349,-0.3478,-0.2881,-0.2842,-0.3074,-0.304,-0.3345,-0.3343,-0.3341,-0.334,0,-0.2995,-0.3155,-0.3332,-0.3533,-0.3587,-0.3666,-0.3819,-0.3878,-0.3971,-0.4039,-0.4057,-0.406,-0.4078,-0.3942,-0.3866,-0.3788,-0.377,-0.3797,-0.3168,-0.3084,-0.3716,-0.3694,-0.4015,-0.4022,-0.4028,-0.4032,-0.4037,0,-0.3024,-0.3128,-0.3345,-0.3405,-0.3486,-0.3628,-0.3701,-0.3867,-0.3938,-0.4157,-0.4186,-0.4287,-0.4231,-0.4249,-0.3925,-0.3816,-0.4012,-0.3515,-0.3263,-0.3844,-0.3798,-0.3766,-0.3737,-0.2577,-0.2569,-0.2562,-0.2557,0,-0.2991,-0.3058,-0.3174,-0.3279,-0.338,-0.3532,-0.3675,-0.376,-0.3961,-0.399,-0.4136,-0.4145,-0.4132,-0.3691,-0.3644,-0.3511,-0.3467,-0.3406,-0.4099,-0.2581,-0.2528,-0.2471,-0.248,-0.2497,-0.2503,-0.2508,-0.2511,-0.2513,-0.2871,-0.2913,-0.2999,-0.3071,-0.3201,-0.3302,-0.3244,-0.3264,-0.3252,-0.3025,-0.3638,-0.3296,-0.3531,-0.288,-0.295,-0.2907,-0.3141,-0.3064,-0.3063,-0.3074,-0.2941,-0.2909,-0.2926,-0.2934,-0.2941,-0.2947,-0.2953,0,-0.2528,-0.269,-0.2762,-0.278,-0.2613,-0.2938,-0.3077,-0.2785,-0.2374,-0.2279,-0.2133,-0.2013,-0.1829,-0.2137,-0.1814,-0.2091,-0.1802,-0.2268,-0.1766,-0.1822,-0.1873,-0.1661,-0.1317,-0.1315,-0.1314,-0.1312,0,0,-0.2347,-0.2247,-0.2274,-0.1991,-0.2096,-0.1803,-0.1771,-0.1493,-0.1242,-0.0694,-0.0406,-0.061,-0.1388,-0.096,-0.1262,-0.1183,-0.1388,-0.1107,-0.2336,-0.1732,-0.1776,-0.2217,-0.1947,0,0,0,0,0]},{"header":{"parameterUnit":"m.s-1","parameterCategory":2,"la1":30.2991,"la2":30.254,"lo1":-89.0895,"lo2":-89.0444,"dy":0.0017,"dx":0.0017,"nx":28,"ny":28,"refTime":"2024-02-03T09:00:00:Z","depth":"2","parameterNumber":3,"parameterNumberName":"V-component_of_CURRENTS"},"data":[0,0,0,0,0,0,0,0,0,0,0,0,0,0,0,0,0,0,0,0,0,0,0,0,0,0,0,0,0,0,0,0,0,0,0,0,0,0,0,0,0,0,0,0,0,0,0,0,0,0,0,0,0,0,0,0,0,0,0.071,0.0712,0,0.0828,0.0829,0.083,0.0872,0.0872,0.0871,0.0871,0.0847,0.0847,0.0847,0,0,0,0,0,0,0,0,0,0,0,0,0,0.0595,0.0596,0.071,0.0712,0.0713,0.0828,0.0829,0.083,0.0872,0.0872,0.0871,0.0871,0.0847,0.0847,0.0847,0,0,0,0,0,0,0,0,0,0,0,0,0,0.067,0.0596,0.071,0.0749,0.0754,0.0827,0.0829,0.0831,0.0872,0.0872,0.0871,0.0871,0.0848,0.0847,0.0847,0.0851,0,0,0.0845,0.0845,0,0,0,0,0,0,0,0,0.0665,0.0674,0.0742,0.0747,0.0752,0.0836,0.078,0.0831,0.0872,0.0825,0.0871,0.0871,0.0832,0.0833,0.0855,0.085,0.0849,0.0845,0.0844,0.0844,0.0844,0,0,0,0,0,0,0,0.066,0.0669,0.0755,0.0743,0.075,0.0786,0.0795,0.0791,0.0826,0.083,0.0833,0.0849,0.0833,0.0856,0.0855,0.0849,0.0845,0.0844,0.0844,0.0844,0.0959,0.0962,0,0,0,0,0,0,0.0646,0.0664,0.0751,0.0759,0.0709,0.0788,0.0799,0.0808,0.0829,0.0833,0.0849,0.0851,0.0857,0.0855,0.0854,0.0937,0.0844,0.0844,0.0843,0.0955,0.0959,0.0963,0,0,0,0,0,0,0.0643,0.0652,0.0747,0.0716,0.0731,0.079,0.0801,0.0811,0.0836,0.0846,0.0847,0.0864,0.0857,0.0855,0.0895,0.0933,0.0843,0.0843,0.0951,0.0956,0.0961,0.1053,0,0,0,0,0,0,0.0639,0.065,0.0642,0.0715,0.0732,0.0794,0.0802,0.0814,0.0847,0.085,0.0859,0.0857,0.0856,0.0896,0.0894,0.093,0.0842,0.0947,0.0954,0.096,0.1046,0.1061,0.1073,0,0,0,0,0,0.0634,0.0616,0.0641,0.0651,0.0722,0.0795,0.0808,0.0848,0.0848,0.0866,0.09,0.0857,0.0935,0.0899,0.0896,0.0932,0.0944,0.0952,0.0959,0.104,0.1058,0.1073,0,0,0,0,0,0,0.054,0.0621,0.0649,0.0651,0.0725,0.0803,0.0809,0.0848,0.089,0.0883,0.0893,0.0896,0.0947,0.0934,0.0893,0.0991,0.0934,0.0941,0.0996,0.1013,0.1027,0.1004,0.0842,0,0,0,0,0,0.0523,0.0535,0.0632,0.0629,0.0665,0.0741,0.0769,0.081,0.0862,0.088,0.0904,0.0933,0.0978,0.0989,0.1014,0.1054,0.105,0.1081,0.1095,0.1106,0.1091,0.1137,0.1152,0.0988,0.0988,0.0988,0,0,0.0475,0.0527,0.0526,0.0611,0.0662,0.0728,0.0756,0.0803,0.0866,0.0866,0.0937,0.0971,0.1001,0.1069,0.1089,0.1059,0.1163,0.1116,0.1125,0.1103,0.1146,0.1161,0.1175,0.0993,0.0992,0.0991,0,0,0.041,0.0447,0.0453,0.0532,0.0626,0.0693,0.0711,0.0811,0.0862,0.0945,0.0978,0.1047,0.109,0.1149,0.1176,0.1277,0.1234,0.1281,0.1326,0.1372,0.1385,0.1395,0.1451,0.1466,0.1287,0.1287,0.1287,0,0.0347,0.0384,0.0464,0.0521,0.058,0.0681,0.073,0.0811,0.0917,0.0969,0.0969,0.1115,0.1135,0.1248,0.1297,0.1304,0.1318,0.1257,0.1387,0.1397,0.1407,0.146,0.1476,0.1292,0.1292,0.1291,0.1291,0,0.0322,0.0364,0.0376,0.0491,0.0571,0.062,0.0767,0.0845,0.0917,0.1004,0.1128,0.1201,0.1278,0.1321,0.1335,0.1436,0.1424,0.1397,0.1334,0.1428,0.148,0.1494,0.13,0.1298,0.1297,0.1295,0,0,0.013,0.0318,0.0318,0.0381,0.0563,0.0614,0.0752,0.0895,0.0973,0.1098,0.1196,0.1329,0.1367,0.1402,0.1452,0.151,0.1614,0.148,0.148,0.1517,0.1723,0.1935,0.197,0.16,0.1602,0.1604,0.1745,0,0.0077,0.0161,0.0289,0.0375,0.0435,0.061,0.0732,0.0884,0.1014,0.1137,0.1266,0.1366,0.1403,0.1443,0.1515,0.1588,0.1649,0.1578,0.164,0.1642,0.1804,0.1993,0.1385,0.1479,0.1759,0.1761,0.1763,0,-0.0002,0.0078,0.015,0.034,0.0382,0.0454,0.0655,0.078,0.1009,0.1115,0.1262,0.1364,0.1519,0.15,0.1684,0.1634,0.1674,0.1726,0.1732,0.1897,0.1882,0.1425,0.1494,0.1786,0.1784,0.1782,0.1781,0,-0.0196,-0.0031,0.0015,0.0082,0.0319,0.0377,0.0496,0.0738,0.0856,0.1082,0.1191,0.1383,0.1491,0.1581,0.1742,0.1697,0.192,0.1863,0.2097,0.211,0.1591,0.156,0.1951,0.1951,0.1951,0.1951,0.195,0,-0.0312,-0.0284,-0.0086,-0.0061,-0.0,0.0222,0.0315,0.0488,0.073,0.0891,0.1131,0.1346,0.151,0.1691,0.1764,0.2035,0.1945,0.2156,0.2187,0.1621,0.1593,0.1831,0.1815,0.1956,0.1955,0.1954,0.1953,0,-0.0536,-0.0406,-0.0347,-0.0142,-0.0098,-0.0063,0.0165,0.0258,0.0534,0.0751,0.083,0.1294,0.1643,0.1812,0.202,0.2118,0.2294,0.2374,0.1745,0.1711,0.2434,0.2421,0.2677,0.2686,0.2694,0.2701,0.2706,0,-0.0639,-0.0631,-0.0474,-0.045,-0.0376,-0.0284,-0.0206,0.0082,0.0224,0.078,0.0885,0.1354,0.1724,0.2194,0.2159,0.231,0.256,0.2167,0.203,0.2518,0.252,0.2495,0.2472,0.1332,0.1325,0.132,0.1316,0,-0.0819,-0.077,-0.0708,-0.0659,-0.0613,-0.0514,-0.0365,-0.0283,0.0127,0.0371,0.1003,0.138,0.1793,0.1864,0.2063,0.2081,0.2107,0.2102,0.2673,0.1355,0.1292,0.1283,0.1294,0.1271,0.1276,0.1279,0.1281,0.1283,-0.0955,-0.0968,-0.0879,-0.0834,-0.0772,-0.0672,-0.0582,-0.0568,-0.0351,-0.0096,0.0596,0.094,0.1334,0.132,0.1577,0.1734,0.1863,0.1916,0.1907,0.191,0.1843,0.1811,0.1869,0.1877,0.1883,0.1889,0.1894,0,-0.1084,-0.1044,-0.1037,-0.0932,-0.0943,-0.079,-0.0602,-0.0571,-0.0546,-0.0542,-0.0237,0.0142,0.0226,0.0845,0.0828,0.1152,0.0839,0.1439,0.0905,0.0939,0.0973,0.0844,0.0613,0.0615,0.0616,0.0617,0,0,-0.1137,-0.1176,-0.1159,-0.1137,-0.102,-0.0993,-0.0878,-0.0864,-0.0886,-0.0957,-0.0937,-0.0961,0.0046,-0.0109,0.0212,0.0446,0.0602,0.0403,0.1309,0.0636,0.0669,0.1058,0.0881,0,0,0,0,0]}],[{"header":{"parameterUnit":"m.s-1","parameterCategory":2,"la1":30.2991,"la2":30.254,"lo1":-89.0895,"lo2":-89.0444,"dy":0.0017,"dx":0.0017,"nx":28,"ny":28,"refTime":"2024-02-03T09:00:00:Z","depth":"4","parameterNumber":2,"parameterNumberName":"U-component_of_CURRENTS"},"data":[0,0,0,0,0,0,0,0,0,0,0,0,0,0,0,0,0,0,0,0,0,0,0,0,0,0,0,0,0,0,0,0,0,0,0,0,0,0,0,0,0,0,0,0,0,0,0,0,0,0,0,0,0,0,0,0,0,0,-0.0336,-0.0336,0,-0.028,-0.0279,-0.0278,-0.0168,-0.0166,-0.0165,-0.0163,0.0044,0.0048,0.0052,0,0,0,0,0,0,0,0,0,0,0,0,0,-0.0263,-0.0265,-0.0336,-0.0336,-0.0335,-0.028,-0.0279,-0.0278,-0.0168,-0.0166,-0.0164,-0.0162,0.0043,0.0047,0.0052,0,0,0,0,0,0,0,0,0,0,0,0,0,-0.0255,-0.0266,-0.0336,-0.0278,-0.0272,-0.028,-0.0279,-0.0277,-0.0169,-0.0166,-0.0164,-0.0161,0.0041,0.0047,0.0053,0.0038,0,0,0.0071,0.0073,0,0,0,0,0,0,0,0,-0.0256,-0.0257,-0.0287,-0.0282,-0.0276,-0.0233,-0.0177,-0.0166,-0.0169,-0.0203,-0.0163,-0.016,-0.004,-0.0027,-0.0017,0.0048,0.0057,0.0071,0.0075,0.0077,0.0079,0,0,0,0,0,0,0,-0.0257,-0.0259,-0.0309,-0.0287,-0.028,-0.0226,-0.0222,-0.0175,-0.013,-0.02,-0.0193,-0.0196,-0.0034,-0.0023,-0.0011,0.006,0.0071,0.0076,0.008,0.0082,0.0096,0.0093,0,0,0,0,0,0,-0.0282,-0.026,-0.031,-0.0307,-0.0265,-0.023,-0.0225,-0.0245,-0.0133,-0.0116,-0.0198,-0.0191,-0.0035,-0.0018,-0.0003,-0.0079,0.0077,0.0083,0.0086,0.01,0.0096,0.0092,0,0,0,0,0,0,-0.028,-0.0287,-0.0313,-0.0285,-0.0285,-0.0235,-0.0257,-0.0246,-0.0249,-0.0134,-0.0113,-0.0216,-0.0032,-0.0011,-0.0004,-0.0067,0.0086,0.0091,0.0103,0.0098,0.0094,-0.0188,0,0,0,0,0,0,-0.0279,-0.0288,-0.0316,-0.0288,-0.0288,-0.0361,-0.026,-0.0246,-0.0256,-0.0247,-0.0143,-0.012,-0.0028,-0.0014,0.0002,-0.0056,0.0096,0.0107,0.0101,0.0095,-0.0174,-0.0201,-0.0224,0,0,0,0,0,-0.0277,-0.0344,-0.0318,-0.0324,-0.0327,-0.0365,-0.0361,-0.031,-0.026,-0.0297,-0.0226,-0.0124,-0.0038,-0.0013,0.0007,-0.0051,0.011,0.0103,0.0096,-0.0163,-0.0196,-0.0224,0,0,0,0,0,0,-0.0331,-0.0339,-0.0309,-0.0375,-0.0384,-0.0349,-0.0373,-0.0341,-0.0316,-0.0297,-0.0174,-0.015,-0.016,-0.0075,-0.0049,-0.0063,0.0057,0.0053,-0.0147,-0.0177,-0.0201,-0.021,0.01,0,0,0,0,0,-0.0358,-0.0404,-0.0399,-0.0451,-0.046,-0.042,-0.0428,-0.0405,-0.0376,-0.0362,-0.0298,-0.0222,-0.0175,-0.0154,-0.0095,-0.0118,-0.008,-0.0137,-0.0163,-0.0185,-0.0179,-0.0201,-0.0229,0.0069,0.0069,0.0069,0,0,-0.0393,-0.0402,-0.0427,-0.0465,-0.0453,-0.0498,-0.0418,-0.0458,-0.0494,-0.0344,-0.0377,-0.031,-0.02,-0.0221,-0.0216,-0.0159,-0.0266,-0.0194,-0.0214,-0.0194,-0.0212,-0.0241,-0.0267,0.0064,0.0065,0.0066,0,0,-0.0479,-0.0494,-0.055,-0.0575,-0.0592,-0.058,-0.0607,-0.0604,-0.0601,-0.0638,-0.0531,-0.0519,-0.0454,-0.0401,-0.0356,-0.0487,-0.0395,-0.0465,-0.0604,-0.063,-0.0654,-0.0675,-0.0743,-0.0768,-0.0482,-0.0482,-0.0483,0,-0.0515,-0.0581,-0.0577,-0.0634,-0.0663,-0.0629,-0.0696,-0.0706,-0.0708,-0.0719,-0.0681,-0.0619,-0.0537,-0.0544,-0.0587,-0.0545,-0.0555,-0.0506,-0.0666,-0.0685,-0.0702,-0.0765,-0.0788,-0.0497,-0.0495,-0.0494,-0.0492,0,-0.0621,-0.0684,-0.0728,-0.078,-0.0822,-0.0885,-0.0898,-0.0942,-0.0934,-0.0927,-0.0958,-0.088,-0.0832,-0.0824,-0.0741,-0.0818,-0.0791,-0.07,-0.0599,-0.075,-0.0806,-0.0826,-0.0517,-0.0512,-0.0508,-0.0504,0,0,-0.066,-0.078,-0.0789,-0.084,-0.0906,-0.0951,-0.1036,-0.1094,-0.114,-0.1156,-0.1212,-0.1167,-0.1122,-0.1068,-0.0986,-0.1012,-0.1169,-0.0925,-0.092,-0.1011,-0.1278,-0.1186,-0.1198,-0.1117,-0.112,-0.1123,-0.13,0,-0.0731,-0.0862,-0.0911,-0.1041,-0.1104,-0.1134,-0.1218,-0.1269,-0.1291,-0.1346,-0.1299,-0.1311,-0.1216,-0.1209,-0.123,-0.1142,-0.122,-0.1132,-0.1098,-0.1098,-0.1011,-0.1216,-0.1133,-0.1313,-0.1318,-0.1321,-0.1323,0,-0.0783,-0.0875,-0.101,-0.1162,-0.1195,-0.1276,-0.1383,-0.1459,-0.152,-0.1542,-0.1559,-0.1507,-0.1528,-0.1431,-0.1442,-0.1394,-0.1377,-0.1336,-0.134,-0.1152,-0.1039,-0.1105,-0.1356,-0.1354,-0.1351,-0.1349,-0.1347,0,-0.0748,-0.0933,-0.1042,-0.1093,-0.1261,-0.1336,-0.1422,-0.1507,-0.1579,-0.1658,-0.171,-0.1711,-0.1707,-0.1689,-0.158,-0.154,-0.1595,-0.1517,-0.145,-0.1445,-0.1344,-0.1317,-0.1591,-0.1591,-0.159,-0.159,-0.1589,0,-0.0763,-0.0849,-0.1044,-0.1096,-0.1241,-0.1361,-0.1495,-0.157,-0.1697,-0.1776,-0.1801,-0.1839,-0.177,-0.176,-0.1683,-0.1621,-0.1686,-0.1521,-0.149,-0.1468,-0.1453,-0.1363,-0.1334,-0.1597,-0.1595,-0.1594,-0.1593,0,-0.0655,-0.0792,-0.0924,-0.1139,-0.1213,-0.1301,-0.1524,-0.1598,-0.1758,-0.1862,-0.1899,-0.196,-0.1941,-0.1876,-0.1827,-0.1742,-0.1688,-0.1659,-0.1699,-0.1657,-0.1522,-0.1506,-0.1659,-0.1658,-0.1656,-0.1655,-0.1654,0,-0.0602,-0.0657,-0.0896,-0.0958,-0.1052,-0.1225,-0.1319,-0.1561,-0.1645,-0.1902,-0.1921,-0.1999,-0.1994,-0.1876,-0.1823,-0.175,-0.1688,-0.1717,-0.1589,-0.1579,-0.1534,-0.1519,-0.1505,-0.1652,-0.1652,-0.1651,-0.1651,0,-0.0455,-0.0536,-0.0615,-0.0748,-0.0873,-0.1034,-0.1207,-0.1298,-0.1568,-0.1796,-0.1887,-0.1907,-0.1898,-0.181,-0.1762,-0.169,-0.172,-0.1702,-0.1704,-0.1583,-0.1571,-0.1525,-0.1512,-0.1646,-0.1647,-0.1647,-0.1648,0,-0.0283,-0.0277,-0.035,-0.0462,-0.0612,-0.0714,-0.0908,-0.1071,-0.1239,-0.1611,-0.1642,-0.1736,-0.1868,-0.1787,-0.1735,-0.1662,-0.1629,-0.1578,-0.1586,-0.1591,-0.1472,-0.1441,-0.1498,0,0,0,0,0,-0.0083,0.0003,-0.0053,-0.0152,-0.0311,-0.0398,-0.0729,-0.0946,-0.1317,-0.134,-0.1507,-0.151,-0.1529,-0.158,-0.1473,-0.1638,-0.1562,-0.1514,-0.1488,-0.162,-0.1625,-0.1482,0,0,0,0,0,0,0.008,0.0124,0.0091,0.0158,0.0132,-0.0015,-0.0222,-0.0519,-0.0601,-0.1001,-0.0992,-0.1353,-0.1328,-0.1453,-0.1376,-0.1402,-0.1359,-0.1637,-0.1634,-0.1616,-0.1621,-0.1626,-0.1481,0,0,0,0,0]},{"header":{"parameterUnit":"m.s-1","parameterCategory":2,"la1":30.2991,"la2":30.254,"lo1":-89.0895,"lo2":-89.0444,"dy":0.0017,"dx":0.0017,"nx":28,"ny":28,"refTime":"2024-02-03T09:00:00:Z","depth":"4","parameterNumber":3,"parameterNumberName":"V-component_of_CURRENTS"},"data":[0,0,0,0,0,0,0,0,0,0,0,0,0,0,0,0,0,0,0,0,0,0,0,0,0,0,0,0,0,0,0,0,0,0,0,0,0,0,0,0,0,0,0,0,0,0,0,0,0,0,0,0,0,0,0,0,0,0,-0.0066,-0.0065,0,0.0023,0.0024,0.0025,0.0043,0.0042,0.0041,0.0041,0.0048,0.0049,0.005,0,0,0,0,0,0,0,0,0,0,0,0,0,-0.028,-0.0276,-0.0066,-0.0065,-0.0064,0.0023,0.0024,0.0025,0.0043,0.0042,0.0041,0.004,0.0048,0.0049,0.005,0,0,0,0,0,0,0,0,0,0,0,0,0,-0.0188,-0.0274,-0.0066,-0.0045,-0.0042,0.0022,0.0024,0.0025,0.0043,0.0042,0.0041,0.004,0.0047,0.0049,0.005,0.0079,0,0,0.0054,0.0054,0,0,0,0,0,0,0,0,-0.0193,-0.018,-0.0049,-0.0046,-0.0043,0.002,-0.0049,0.0039,0.0043,0.0011,0.0041,0.0039,0.0032,0.0034,0.0055,0.008,0.008,0.0054,0.0055,0.0055,0.0056,0,0,0,0,0,0,0,-0.02,-0.0184,-0.003,-0.0048,-0.0044,-0.006,-0.0048,-0.0032,0.0025,0.0014,0.0015,0.0025,0.0033,0.0054,0.0055,0.008,0.0054,0.0055,0.0056,0.0056,0.0158,0.016,0,0,0,0,0,0,-0.0206,-0.0189,-0.0033,-0.0028,-0.0123,-0.0055,-0.0041,0.0001,0.0027,0.003,0.0026,0.0026,0.0052,0.0054,0.0055,0.0108,0.0055,0.0057,0.0057,0.0156,0.0158,0.0161,0,0,0,0,0,0,-0.021,-0.0191,-0.0037,-0.011,-0.0091,-0.005,-0.0002,0.0004,0.0025,0.0037,0.0038,0.004,0.0051,0.0053,0.0094,0.0107,0.0057,0.0058,0.0154,0.0157,0.0159,0.0201,0,0,0,0,0,0,-0.0216,-0.0192,-0.0164,-0.0108,-0.0087,-0.001,-0.0001,0.0006,0.0032,0.0033,0.005,0.0049,0.0051,0.0092,0.0095,0.0108,0.0059,0.0151,0.0155,0.0159,0.0197,0.0205,0.0212,0,0,0,0,0,-0.0223,-0.0198,-0.0163,-0.0144,-0.0048,-0.0009,-0.0,0.0024,0.0034,0.004,0.0076,0.0049,0.0116,0.0095,0.0098,0.0111,0.015,0.0154,0.0158,0.0194,0.0204,0.0212,0,0,0,0,0,0,-0.0273,-0.0191,-0.0153,-0.0099,-0.0056,-0.0007,-0.0005,0.0028,0.0065,0.0061,0.0081,0.0084,0.0121,0.012,0.0097,0.0154,0.0125,0.013,0.0152,0.0161,0.0168,0.0148,0.006,0,0,0,0,0,-0.0266,-0.023,-0.0153,-0.0113,-0.0096,-0.0042,-0.0022,0.0001,0.004,0.0055,0.0081,0.0109,0.0144,0.0154,0.0175,0.0211,0.0208,0.0221,0.0228,0.0234,0.0223,0.0265,0.0274,0.0175,0.0175,0.0175,0,0,-0.0276,-0.0227,-0.0205,-0.0123,-0.0094,-0.0071,-0.0035,-0.0011,0.002,0.0049,0.0093,0.0132,0.0161,0.0204,0.0219,0.0202,0.0262,0.024,0.0245,0.023,0.027,0.028,0.0288,0.0178,0.0177,0.0177,0,0,-0.0319,-0.0233,-0.0237,-0.0195,-0.0146,-0.01,-0.009,-0.0026,0.0011,0.007,0.0106,0.0166,0.0204,0.0246,0.0268,0.0329,0.03,0.0328,0.0346,0.0387,0.0395,0.0402,0.0407,0.0414,0.033,0.033,0.033,0,-0.034,-0.0308,-0.0235,-0.023,-0.0199,-0.0114,-0.0111,-0.0051,0.0025,0.007,0.0076,0.0202,0.0225,0.0306,0.033,0.0343,0.0346,0.0308,0.0395,0.0401,0.0408,0.0412,0.0419,0.0333,0.0333,0.0332,0.0332,0,-0.0394,-0.0357,-0.036,-0.0308,-0.0261,-0.0245,-0.0148,-0.009,-0.0024,0.0046,0.0148,0.0221,0.029,0.032,0.0341,0.0411,0.0392,0.0398,0.0366,0.042,0.0421,0.0428,0.0336,0.0336,0.0335,0.0334,0,0,-0.0477,-0.0412,-0.0414,-0.0398,-0.0297,-0.0273,-0.0193,-0.0097,-0.0041,0.0065,0.0141,0.0251,0.031,0.034,0.0397,0.0446,0.0501,0.0438,0.0439,0.043,0.0565,0.049,0.049,0.0521,0.0523,0.0524,0.0546,0,-0.0548,-0.0563,-0.0493,-0.0482,-0.0472,-0.0345,-0.0275,-0.0165,-0.0055,0.0045,0.0175,0.0257,0.0314,0.0354,0.0422,0.0486,0.0521,0.0492,0.0524,0.0524,0.0442,0.0496,0.0529,0.055,0.0552,0.0553,0.0554,0,-0.0634,-0.0622,-0.0641,-0.0551,-0.0535,-0.0506,-0.0367,-0.0292,-0.0108,-0.0019,0.0118,0.0221,0.0349,0.0368,0.051,0.0487,0.0517,0.0562,0.0564,0.0479,0.0462,0.0489,0.0565,0.0564,0.0563,0.0563,0.0562,0,-0.0759,-0.072,-0.074,-0.0713,-0.0604,-0.0576,-0.0502,-0.0327,-0.0255,-0.0064,0.0007,0.019,0.0266,0.0369,0.0485,0.0493,0.0606,0.0624,0.0584,0.0578,0.0617,0.0609,0.0686,0.0686,0.0686,0.0686,0.0686,0,-0.0856,-0.0869,-0.081,-0.0822,-0.082,-0.069,-0.0649,-0.0527,-0.0364,-0.029,-0.0054,0.0035,0.0267,0.038,0.0471,0.0546,0.0594,0.0585,0.0586,0.0634,0.0629,0.0621,0.0613,0.0687,0.0687,0.0687,0.0686,0,-0.0992,-0.0955,-0.0982,-0.0911,-0.0893,-0.0895,-0.0782,-0.0739,-0.0547,-0.0444,-0.0389,-0.0096,0.0056,0.0258,0.042,0.0501,0.0591,0.0589,0.0605,0.0607,0.0537,0.0531,0.0561,0.0558,0.0556,0.0555,0.0553,0,-0.1055,-0.1094,-0.1094,-0.1116,-0.1098,-0.1073,-0.1053,-0.0874,-0.0818,-0.0539,-0.0514,-0.0289,-0.011,0.008,0.0297,0.0472,0.0486,0.0549,0.0575,0.0529,0.0528,0.0525,0.0522,0.055,0.055,0.0549,0.0549,0,-0.1171,-0.1196,-0.122,-0.1283,-0.1304,-0.1306,-0.1258,-0.1227,-0.1007,-0.0849,-0.0638,-0.0415,-0.0241,0.0001,0.0145,0.0274,0.0539,0.0529,0.0534,0.056,0.0517,0.0517,0.0516,0.0542,0.0543,0.0544,0.0544,0,-0.1255,-0.132,-0.1371,-0.1403,-0.146,-0.1484,-0.1449,-0.1351,-0.1256,-0.0928,-0.0888,-0.057,-0.0357,-0.0109,0.0022,0.0158,0.0194,0.0256,0.0276,0.0286,0.0217,0.0124,0.0025,0,0,0,0,0,-0.13,-0.1368,-0.1456,-0.149,-0.1559,-0.1554,-0.1544,-0.1478,-0.1288,-0.1192,-0.1019,-0.0847,-0.0513,-0.0323,-0.0221,-0.0052,0.0188,0.0076,0.0259,0.0505,0.0513,0.0474,0,0,0,0,0,0,-0.1328,-0.1432,-0.1475,-0.1545,-0.1561,-0.1617,-0.1607,-0.1494,-0.1415,-0.12,-0.1054,-0.0818,-0.0544,-0.059,-0.0212,-0.0151,-0.0021,0.0271,0.0273,0.05,0.0507,0.0514,0.0477,0,0,0,0,0]}]]